Date String (YYYY-MM-DD hh:mm:ss) UTC,Instrument flags,Ambient pressure (hPa),Sample flow (lpm),Bypass flow (lpm),Sample temperature (°C),Ambient temperature (°C),ASC tube jacket temperature (°C),LED temperature (°C),Box temperature (°C),Sample RH (%),Span deviation,Mass concentration (μg/m³),Mass concentration (μg/m³),Mass concentration (μg/m³)
DateTimeUTC,F1_M11,P_M11,Q1_M11,Q2_M11,T1_M11,T2_M11,T3_M11,T4_M11,T5_M11,U1_M11,ZSPAN_M11,X2_M11,X0_M11,X1_M11
2021-12-02 22:00:00,,0825.6,4.98,0.00,29.6,25.6,00.0,38.7,30.9,08.4,0000.0,0002.52,0010.57,0001.38
2021-12-02 22:01:00,,0825.6,5.01,0.00,29.6,26.1,00.0,38.6,31.0,08.5,0000.0,0002.40,0010.00,0001.39
2021-12-02 22:02:00,,0825.6,4.98,0.00,29.5,26.6,00.0,38.6,31.0,08.5,0000.0,0002.37,0010.04,0001.38
2021-12-02 22:03:00,,0825.6,5.00,0.00,29.5,27.1,00.0,38.6,31.1,08.6,0000.0,0002.38,0010.01,0001.39
2021-12-02 22:04:00,,0825.6,4.99,0.00,29.5,27.5,00.0,38.5,31.2,08.6,0000.0,0002.46,0010.15,0001.41
2021-12-02 22:05:00,,0825.6,5.02,0.00,29.6,27.9,00.0,38.5,31.4,08.5,0000.0,0002.59,0010.00,0001.45
2021-12-02 22:06:00,,0825.6,5.00,0.00,29.6,28.1,00.0,38.5,31.4,08.5,0000.0,0002.62,0011.01,0001.47
2021-12-02 22:07:00,,0825.6,5.01,0.00,29.7,28.4,00.0,38.6,31.5,08.5,0000.0,0002.69,0011.57,0001.48
2021-12-02 22:08:00,,0825.6,5.01,0.00,29.7,28.6,00.0,38.6,31.6,08.5,0000.0,0002.71,0011.22,0001.51
2021-12-02 22:09:00,,0825.6,4.98,0.00,29.8,28.8,00.0,38.6,31.7,08.5,0000.0,0002.74,0010.68,0001.53
2021-12-02 22:10:00,,0825.6,4.99,0.00,29.8,29.0,00.0,38.6,31.7,08.5,0000.0,0002.84,0010.44,0001.56
2021-12-02 22:11:00,,0825.6,5.01,0.00,29.9,29.2,00.0,38.7,31.8,08.4,0000.0,0002.90,0010.46,0001.60
2021-12-02 22:12:00,,0825.6,5.02,0.00,30.0,29.3,00.0,38.7,31.9,08.4,0000.0,0002.95,0010.75,0001.61
2021-12-02 22:13:00,,0825.6,5.00,0.00,30.0,28.4,00.0,38.7,31.7,08.4,0000.0,0002.97,0010.95,0001.65
2021-12-02 22:14:00,,0825.6,5.00,0.00,29.8,26.2,00.0,38.7,31.1,08.4,0000.0,0002.97,0011.53,0001.68
2021-12-02 22:15:00,,0825.6,5.01,0.00,29.7,25.7,00.0,38.7,31.0,08.5,0000.0,0003.03,0011.80,0001.68
2021-12-02 22:16:00,,0825.7,4.99,0.00,29.6,26.1,00.0,38.6,31.0,08.5,0000.0,0003.00,0012.79,0001.69
2021-12-02 22:17:00,,0825.6,5.00,0.00,29.5,26.6,00.0,38.6,31.1,08.6,0000.0,0002.98,0012.43,0001.71
2021-12-02 22:18:00,,0825.6,5.00,0.00,29.5,27.1,00.0,38.6,31.2,08.6,0000.0,0002.97,0011.99,0001.74
2021-12-02 22:19:00,,0825.7,4.99,0.00,29.5,27.4,00.0,38.6,31.2,08.6,0000.0,0002.95,0011.98,0001.75
2021-12-02 22:20:00,,0825.7,5.01,0.00,29.6,27.7,00.0,38.5,31.3,08.6,0000.0,0002.97,0011.92,0001.76
2021-12-02 22:21:00,,0825.7,5.01,0.00,29.6,28.0,00.0,38.5,31.4,08.6,0000.0,0002.93,0011.89,0001.75
2021-12-02 22:22:00,,0825.7,4.98,0.00,29.7,28.3,00.0,38.6,31.5,08.6,0000.0,0002.92,0013.09,0001.74
2021-12-02 22:23:00,,0825.7,5.02,0.00,29.7,28.6,00.0,38.6,31.6,08.6,0000.0,0002.95,0013.93,0001.75
2021-12-02 22:24:00,,0825.7,5.00,0.00,29.8,28.8,00.0,38.6,31.7,08.5,0000.0,0003.03,0013.91,0001.75
2021-12-02 22:25:00,,0825.7,5.00,0.00,29.8,29.0,00.0,38.6,31.7,08.5,0000.0,0003.07,0013.87,0001.74
2021-12-02 22:26:00,,0825.7,5.01,0.00,29.9,29.1,00.0,38.7,31.8,08.4,0000.0,0003.03,0013.54,0001.74
2021-12-02 22:27:00,,0825.7,4.99,0.00,29.9,29.3,00.0,38.7,31.8,08.4,0000.0,0003.02,0012.76,0001.73
2021-12-02 22:28:00,,0825.7,5.00,0.00,30.0,28.2,00.0,38.7,31.6,08.4,0000.0,0003.00,0013.02,0001.72
2021-12-02 22:29:00,,0825.7,5.01,0.00,29.8,26.1,00.0,38.7,31.1,08.5,0000.0,0003.03,0012.37,0001.70
2021-12-02 22:30:00,,0825.6,5.00,0.00,29.7,25.7,00.0,38.7,31.0,08.5,0000.0,0003.08,0012.42,0001.69
2021-12-02 22:31:00,,0825.7,4.99,0.00,29.6,26.1,00.0,38.6,31.0,08.5,0000.0,0003.15,0012.76,0001.68
2021-12-02 22:32:00,,0825.6,5.01,0.00,29.5,26.6,00.0,38.6,31.0,08.6,0000.0,0003.16,0013.84,0001.68
2021-12-02 22:33:00,,0825.6,5.01,0.00,29.5,27.1,00.0,38.5,31.1,08.6,0000.0,0003.17,0013.04,0001.68
2021-12-02 22:34:00,,0825.6,5.00,0.00,29.5,27.5,00.0,38.5,31.2,08.6,0000.0,0003.22,0012.05,0001.68
2021-12-02 22:35:00,,0825.6,5.01,0.00,29.6,27.9,00.0,38.5,31.3,08.6,0000.0,0003.22,0012.33,0001.67
2021-12-02 22:36:00,,0825.6,4.99,0.00,29.6,28.3,00.0,38.5,31.4,08.5,0000.0,0003.23,0011.87,0001.67
2021-12-02 22:37:00,,0825.6,5.00,0.00,29.7,28.5,00.0,38.5,31.5,08.5,0000.0,0003.24,0012.72,0001.66
2021-12-02 22:38:00,,0825.6,5.01,0.00,29.7,28.7,00.0,38.6,31.6,08.4,0000.0,0003.21,0013.07,0001.63
2021-12-02 22:39:00,,0825.6,4.99,0.00,29.8,28.9,00.0,38.6,31.7,08.4,0000.0,0003.23,0012.62,0001.62
2021-12-02 22:40:00,,0825.7,5.01,0.00,29.8,29.0,00.0,38.6,31.7,08.4,0000.0,0003.26,0013.96,0001.63
2021-12-02 22:41:00,,0825.7,4.99,0.00,29.9,29.2,00.0,38.6,31.8,08.4,0000.0,0003.23,0013.77,0001.62
2021-12-02 22:42:00,,0825.7,5.00,0.00,29.9,29.3,00.0,38.7,31.8,08.4,0000.0,0003.15,0013.98,0001.61
2021-12-02 22:43:00,,0825.6,5.01,0.00,30.0,29.0,00.0,38.7,31.8,08.4,0000.0,0003.12,0013.11,0001.62
2021-12-02 22:44:00,,0825.6,5.00,0.00,29.9,26.9,00.0,38.7,31.3,08.4,0000.0,0003.10,0014.19,0001.62
2021-12-02 22:45:00,,0825.5,5.00,0.00,29.7,25.6,00.0,38.7,30.9,08.5,0000.0,0003.01,0014.31,0001.62
2021-12-02 22:46:00,,0825.5,5.00,0.00,29.6,25.8,00.0,38.7,31.0,08.5,0000.0,0002.98,0014.12,0001.62
2021-12-02 22:47:00,,0825.6,5.00,0.00,29.5,26.2,00.0,38.6,31.0,08.5,0000.0,0002.95,0014.15,0001.62
2021-12-02 22:48:00,,0825.6,5.01,0.00,29.5,26.8,00.0,38.6,31.0,08.5,0000.0,0002.94,0013.24,0001.62
2021-12-02 22:49:00,,0825.7,5.00,0.00,29.5,27.3,00.0,38.5,31.1,08.5,0000.0,0002.95,0012.55,0001.64
2021-12-02 22:50:00,,0825.8,5.01,0.00,29.5,27.7,00.0,38.5,31.2,08.6,0000.0,0002.91,0013.10,0001.64
2021-12-02 22:51:00,,0825.7,4.99,0.00,29.6,28.0,00.0,38.5,31.3,08.6,0000.0,0002.86,0012.23,0001.64
2021-12-02 22:52:00,,0825.6,5.01,0.00,29.6,28.3,00.0,38.5,31.4,08.5,0000.0,0002.86,0011.90,0001.65
2021-12-02 22:53:00,,0825.6,4.99,0.00,29.6,28.5,00.0,38.5,31.4,08.5,0000.0,0002.86,0011.25,0001.65
2021-12-02 22:54:00,,0825.6,4.99,0.00,29.7,28.7,00.0,38.6,31.5,08.5,0000.0,0002.89,0011.40,0001.64
2021-12-02 22:55:00,,0825.6,5.02,0.00,29.7,28.9,00.0,38.6,31.6,08.4,0000.0,0002.95,0010.19,0001.63
2021-12-02 22:56:00,,0825.6,4.99,0.00,29.8,29.0,00.0,38.6,31.7,08.4,0000.0,0002.91,0010.21,0001.61
2021-12-02 22:57:00,,0825.6,4.99,0.00,29.8,29.1,00.0,38.6,31.8,08.4,0000.0,0002.83,0009.67,0001.59
2021-12-02 22:58:00,,0825.7,5.01,0.00,29.9,29.2,00.0,38.7,31.8,08.4,0000.0,0002.75,0009.56,0001.57
2021-12-02 22:59:00,,0825.6,4.99,0.00,29.9,27.9,00.0,38.7,31.5,08.4,0000.0,0002.69,0010.31,0001.54
